Pierre, SD

10:03 AM CST on January 19, 2018 (GMT -0600)
Pierre Regional

Weather History for KPIR - March, 2013

Change the Weather History Date:

Sunday, March 3, 2013

  Actual Average Record
Temperature  
Mean Temperature 39 °F 30 °F  
Max Temperature 46 °F 40 °F 70 °F (2000)
Min Temperature 31 °F 19 °F -11 °F (1960)
Degree Days  
Heating Degree Days 26 36  
Month to date heating degree days 97 108  
Since 1 July heating degree days 5521 5606  
Cooling Degree Days 0 0  
Month to date cooling degree days 0 0  
Year to date cooling degree days 0 0  
Moisture  
Dew Point 31 °F    
Average Humidity 79    
Maximum Humidity 92    
Minimum Humidity 65    
Precipitation  
Precipitation T in 0.03 in 0.67 in (1997)
Month to date precipitation T 0.09  
Year to date precipitation 1.66 1.10  
Snow  
Snow T in 0.20 in 6.70 in (1997)
Month to date snowfall T 0.7  
Since 1 July snowfall 31.7 22.5  
Snow Depth 0.00 in    
Sea Level Pressure  
Sea Level Pressure 29.72 in    
Wind  
Wind Speed 12 mph (ESE)    
Max Wind Speed 21 mph    
Max Gust Speed 25 mph    
Visibility 8 miles    
Events      
T = Trace of Precipitation, MM = Missing Value Source: NWS Daily Summary

Daily Weather History Graph

Daily Weather History Graph

Search for Another Location

Airport or City:

Trip Planner

Search our weather history database for the weather conditions in past years. The results will help you decide how hot, cold, wet, or windy it might be!

Date:

Astronomy

Mar. 03, 2013 Rise Set
Actual Time 7:14 AM CST 6:32 PM CST
Civil Twilight 6:45 AM CST 7:01 PM CST
Nautical Twilight 6:11 AM CST 7:34 PM CST
Astronomical Twilight 5:38 AM CST 8:08 PM CST
Moon 12:27 AM CST (3/3) 10:15 AM CST (3/3)
Length of Visible Light 12h 15m
Length of Day
11h 17m
Waning Gibbous, 63% of the Moon is Illuminated
Mar 3
Waning Gibbous
Mar 4
Last Quarter
Mar 11
New
Mar 19
First Quarter
Mar 27
Full

Hourly Weather History & Observations

Time (CST) Temp. Windchill Dew Point Humidity Pressure Visibility Wind Dir Wind Speed Gust Speed Precip Events Conditions
12:53 AM 32.0 °F 26.4 °F 28.9 °F 88% 29.94 in 10.0 mi ENE 5.8 mph - N/A   Clear
1:53 AM 30.9 °F 26.2 °F 28.9 °F 92% 29.91 in 10.0 mi East 4.6 mph - N/A   Clear
2:53 AM 30.9 °F 24.3 °F 28.9 °F 92% 29.90 in 10.0 mi East 6.9 mph - N/A   Clear
3:53 AM 30.9 °F 24.3 °F 28.9 °F 92% 29.86 in 10.0 mi East 6.9 mph - N/A   Clear
4:53 AM 32.0 °F 25.6 °F 28.9 °F 88% 29.85 in 10.0 mi East 6.9 mph - N/A   Mostly Cloudy
6:53 AM 32.0 °F 23.0 °F 28.9 °F 88% 29.83 in 10.0 mi ESE 11.5 mph - N/A   Overcast
7:53 AM 32.0 °F 23.6 °F 28.9 °F 88% 29.81 in 9.0 mi ESE 10.4 mph - N/A   Overcast
8:53 AM 33.1 °F 23.9 °F 30.0 °F 89% 29.80 in 9.0 mi ESE 12.7 mph - 0.00 in   Overcast
9:53 AM 36.0 °F 27.5 °F 30.9 °F 82% 29.78 in 10.0 mi ESE 12.7 mph - N/A   Overcast
10:53 AM 39.0 °F 30.6 °F 32.0 °F 76% 29.75 in 10.0 mi ESE 15.0 mph - N/A   Scattered Clouds
11:53 AM 41.0 °F 34.7 °F 33.1 °F 73% 29.72 in 10.0 mi East 10.4 mph - N/A   Clear
12:53 PM 44.1 °F 36.5 °F 34.0 °F 68% 29.69 in 10.0 mi East 17.3 mph - N/A   Scattered Clouds
1:53 PM 44.1 °F 36.8 °F 34.0 °F 68% 29.66 in 10.0 mi East 16.1 mph - N/A   Mostly Cloudy
2:53 PM 45.0 °F 37.9 °F 35.1 °F 68% 29.64 in 10.0 mi ESE 16.1 mph - N/A   Partly Cloudy
3:53 PM 45.0 °F 38.9 °F 35.1 °F 68% 29.62 in 10.0 mi ESE 12.7 mph - N/A   Overcast
4:53 PM 41.0 °F 32.8 °F 33.1 °F 73% 29.62 in 10.0 mi SE 16.1 mph - N/A   Partly Cloudy
5:53 PM 37.0 °F 28.5 °F 32.0 °F 82% 29.62 in 8.0 mi ESE 13.8 mph - N/A   Overcast
6:53 PM 35.1 °F 25.2 °F 30.0 °F 82% 29.63 in 7.0 mi ESE 16.1 mph - N/A   Mostly Cloudy
7:53 PM 32.0 °F 20.8 °F 28.9 °F 88% 29.64 in 5.0 mi ESE 17.3 mph - N/A   Mostly Cloudy
8:04 PM 32.0 °F 20.5 °F 28.4 °F 87% 29.59 in 5.0 mi East 18.4 mph - N/A   Mostly Cloudy
8:53 PM 32.0 °F 21.6 °F 28.9 °F 88% 29.63 in 5.0 mi ESE 15.0 mph - N/A   Overcast
9:53 PM 32.0 °F 22.1 °F 28.9 °F 88% 29.60 in 5.0 mi ESE 13.8 mph - N/A   Overcast
10:53 PM 32.0 °F 22.5 °F 28.9 °F 88% 29.60 in 5.0 mi ESE 12.7 mph - N/A   Overcast
11:53 PM 32.0 °F 24.8 °F 28.9 °F 88% 29.60 in 5.0 mi ESE 8.1 mph - N/A   Overcast